Weather History for Chicago Midway, IL

Change the Weather History Date:

Saturday, March 30, 2013

  Actual Average Record
Temperature  
Mean Temperature 46 °F 44 °F  
Max Temperature 59 °F 52 °F 83 °F (1986)
Min Temperature 32 °F 36 °F 12 °F (1969)
Degree Days  
Heating Degree Days 19 21  
Month to date heating degree days 947 791  
Since 1 July heating degree days 5099 5302  
Cooling Degree Days 0 0  
Month to date cooling degree days 0 0  
Year to date cooling degree days 0 0  
Moisture  
Dew Point 30 °F    
Average Humidity 51    
Maximum Humidity 75    
Minimum Humidity 25    
Precipitation  
Precipitation T in 0.10 in 1.36 in (1949)
Month to date precipitation 1.26 2.61  
Year to date precipitation 5.51 6.61  
Sea Level Pressure  
Sea Level Pressure 30.07 in    
Wind  
Wind Speed 9 mph (SSW)    
Max Wind Speed 21 mph    
Max Gust Speed 29 mph    
Visibility 10 miles    
Events      
T = Trace of Precipitation, MM = Missing Value Source: NWS Daily Summary

Daily Weather History Graph

Daily Weather History Graph

Search for Another Location

Airport:

Trip Planner

Search our weather history database for the weather conditions in past years. The results will help you decide how hot, cold, wet, or windy it might be!

Date:

Astronomy

Mar. 30, 2013 Rise Set
Actual Time 6:36 AM CDT 7:14 PM CDT
Civil Twilight 6:08 AM CDT 7:42 PM CDT
Nautical Twilight 5:35 AM CDT 8:15 PM CDT
Astronomical Twilight 5:01 AM CDT 8:50 PM CDT
Moon 11:24 PM CDT (3/30) 8:28 AM CDT (3/30)
Length of Visible Light 13h 33m
Length of Day
12h 37m
Waning Gibbous, 86% of the Moon is Illuminated
Mar 30
Waning Gibbous
Apr 2
Last Quarter
Apr 10
New
Apr 18
First Quarter
Apr 25
Full

Hourly Weather History & Observations

Time (CDT) Temp. Windchill Dew Point Humidity Pressure Visibility Wind Dir Wind Speed Gust Speed Precip Events Conditions
12:51 AM 37.0 °F 34.5 °F 26.1 °F 65% 30.27 in 10.0 mi East 3.5 mph - N/A   Clear
1:51 AM 35.6 °F - 26.6 °F 70% 30.24 in 10.0 mi Calm Calm - N/A   Clear
2:51 AM 34.0 °F - 25.0 °F 70% 30.25 in 10.0 mi Calm Calm - N/A   Clear
3:51 AM 35.6 °F - 26.6 °F 70% 30.20 in 10.0 mi Calm Calm - N/A   Overcast
4:51 AM 34.0 °F - 27.0 °F 75% 30.23 in 10.0 mi Calm Calm - N/A   Mostly Cloudy
5:51 AM 34.0 °F - 26.1 °F 73% 30.23 in 10.0 mi Calm Calm - N/A   Scattered Clouds
6:51 AM 33.8 °F - 24.8 °F 70% 30.18 in 10.0 mi Calm Calm - N/A   Mostly Cloudy
7:51 AM 37.9 °F 35.5 °F 23.0 °F 55% 30.22 in 10.0 mi Variable 3.5 mph - N/A   Mostly Cloudy
8:51 AM 43.0 °F 39.5 °F 21.0 °F 42% 30.19 in 10.0 mi South 5.8 mph - N/A   Mostly Cloudy
9:51 AM 48.0 °F - 23.0 °F 37% 30.16 in 10.0 mi South 5.8 mph - N/A   Mostly Cloudy
10:51 AM 53.1 °F - 30.0 °F 41% 30.13 in 10.0 mi SSW 8.1 mph - N/A   Mostly Cloudy
11:51 AM 53.6 °F - 30.2 °F 41% 30.09 in 10.0 mi SSW 11.5 mph 18.4 mph N/A   Overcast
12:51 PM 55.9 °F - 30.0 °F 37% 30.07 in 10.0 mi SSW 12.7 mph 20.7 mph N/A   Overcast
1:51 PM 57.9 °F - 30.9 °F 36% 30.04 in 10.0 mi SSW 16.1 mph 26.5 mph N/A   Overcast
2:51 PM 57.9 °F - 30.9 °F 36% 30.00 in 10.0 mi SSW 15.0 mph 24.2 mph N/A   Overcast
3:51 PM 57.0 °F - 30.9 °F 37% 29.98 in 10.0 mi South 17.3 mph 23.0 mph N/A   Overcast
4:51 PM 57.9 °F - 32.0 °F 37% 29.96 in 10.0 mi SSW 16.1 mph 23.0 mph N/A   Overcast
5:51 PM 55.4 °F - 33.8 °F 44% 29.94 in 10.0 mi SW 19.6 mph 26.5 mph N/A   Overcast
6:51 PM 55.0 °F - 35.1 °F 47% 29.94 in 10.0 mi SW 16.1 mph 25.3 mph N/A   Overcast
7:51 PM 53.6 °F - 35.6 °F 51% 29.92 in 10.0 mi SSW 12.7 mph - N/A   Overcast
8:51 PM 52.0 °F - 36.0 °F 54% 29.92 in 10.0 mi South 8.1 mph - N/A   Overcast
9:51 PM 51.1 °F - 37.9 °F 61% 29.90 in 10.0 mi South 10.4 mph - N/A   Overcast
10:51 PM 51.1 °F - 37.9 °F 61% 29.88 in 10.0 mi SSW 11.5 mph - N/A   Overcast
11:51 PM 50.0 °F - 37.9 °F 63% 29.86 in 8.0 mi SSW 9.2 mph - N/A   Overcast